When you browse on this site, cookies collect data to enhance your experience and personalize the content and advertising you see.
Visit our Privacy Policy to learn more. By continuing to use the site, you agree to this use of cookies and data.
  • In Austria
  • List of Countries
  • For 7 days
  • Water Temperature
  • Weather Map
  • News
  • Weather Widgets
  • user-avatar
    Login

    Hourly Weather Shargorod

    Today, 5 June, Friday

    Time Temperature Precipitation Wind Pressure Humidity
    00:00 +13°C° 0 mm 3 mps 730 mmHg 85%
    01:00 +13°C° 0 mm 4 mps 730 mmHg 84%
    02:00 +13°C° 0 mm 5 mps 730 mmHg 83%
    03:00 +13°C° 0.2 mm 5 mps 730 mmHg 87%
    04:00 +13°C° 0.2 mm 5 mps 730 mmHg 90%
    05:00 +14°C° 0.2 mm 5 mps 730 mmHg 94%
    06:00 +14°C° 0.1 mm 4 mps 730 mmHg 91%
    07:00 +15°C° 0.1 mm 4 mps 731 mmHg 88%
    08:00 +17°C° 0.1 mm 4 mps 731 mmHg 84%
    09:00 +19°C° 0.1 mm 4 mps 731 mmHg 78%
    10:00 +20°C° 0.1 mm 5 mps 732 mmHg 72%
    11:00 +22°C° 0.1 mm 5 mps 732 mmHg 66%
    12:00 +23°C° 0.2 mm 5 mps 732 mmHg 63%
    13:00 +25°C° 0.2 mm 5 mps 732 mmHg 60%
    14:00 +26°C° 0.2 mm 5 mps 732 mmHg 57%
    15:00 +26°C° 0.1 mm 4 mps 732 mmHg 60%
    16:00 +26°C° 0.1 mm 4 mps 731 mmHg 63%
    17:00 +26°C° 0.1 mm 4 mps 731 mmHg 65%
    18:00 +24°C° 0 mm 3 mps 731 mmHg 70%
    19:00 +21°C° 0 mm 3 mps 731 mmHg 74%
    20:00 +20°C° 0 mm 3 mps 731 mmHg 78%
    21:00 +19°C° 0 mm 3 mps 732 mmHg 79%
    22:00 +18°C° 0 mm 4 mps 732 mmHg 80%
    23:00 +18°C° 0 mm 4 mps 732 mmHg 80%

    Tomorrow, 6 June, Saturday

    Time Temperature Precipitation Wind Pressure Humidity
    00:00 +17°C° 0 mm 4 mps 732 mmHg 82%
    01:00 +17°C° 0 mm 4 mps 733 mmHg 84%
    02:00 +16°C° 0 mm 3 mps 733 mmHg 86%
    03:00 +16°C° 0 mm 3 mps 733 mmHg 86%
    04:00 +16°C° 0 mm 3 mps 733 mmHg 87%
    05:00 +16°C° 0 mm 3 mps 733 mmHg 87%
    06:00 +17°C° 0 mm 3 mps 734 mmHg 84%
    07:00 +19°C° 0 mm 3 mps 734 mmHg 81%
    08:00 +21°C° 0 mm 3 mps 735 mmHg 78%
    09:00 +23°C° 0.1 mm 2 mps 735 mmHg 73%
    10:00 +24°C° 0.1 mm 2 mps 736 mmHg 68%
    11:00 +25°C° 0.1 mm 2 mps 736 mmHg 63%
    12:00 +26°C° 0 mm 2 mps 736 mmHg 60%
    13:00 +26°C° 0 mm 1 mps 736 mmHg 57%
    14:00 +27°C° 0 mm 1 mps 736 mmHg 53%
    15:00 +27°C° 0 mm 1 mps 736 mmHg 56%
    16:00 +27°C° 0 mm 2 mps 736 mmHg 59%
    17:00 +27°C° 0 mm 2 mps 736 mmHg 62%
    18:00 +26°C° 0.3 mm 2 mps 736 mmHg 68%
    19:00 +24°C° 0.3 mm 3 mps 736 mmHg 75%
    20:00 +21°C° 0.3 mm 3 mps 736 mmHg 82%
    21:00 +20°C° 0 mm 3 mps 736 mmHg 82%
    22:00 +19°C° 0 mm 4 mps 736 mmHg 82%
    23:00 +18°C° 0 mm 4 mps 736 mmHg 81%

    Day after tomorrow, 7 June, Sunday

    Time Temperature Precipitation Wind Pressure Humidity
    00:00 +17°C° 0 mm 4 mps 736 mmHg 83%
    01:00 +17°C° 0 mm 4 mps 736 mmHg 84%
    02:00 +15°C° 0 mm 4 mps 736 mmHg 86%
    03:00 +15°C° 0 mm 4 mps 736 mmHg 86%
    04:00 +14°C° 0 mm 4 mps 736 mmHg 87%
    05:00 +14°C° 0 mm 4 mps 736 mmHg 88%
    06:00 +15°C° 0 mm 5 mps 736 mmHg 84%
    07:00 +17°C° 0 mm 5 mps 737 mmHg 79%
    08:00 +20°C° 0 mm 6 mps 737 mmHg 75%
    09:00 +21°C° 0 mm 6 mps 737 mmHg 70%
    10:00 +23°C° 0 mm 6 mps 737 mmHg 65%
    11:00 +24°C° 0 mm 6 mps 738 mmHg 60%
    12:00 +26°C° 0 mm 6 mps 738 mmHg 59%
    13:00 +27°C° 0 mm 6 mps 737 mmHg 58%
    14:00 +27°C° 0 mm 6 mps 737 mmHg 58%
    15:00 +27°C° 0 mm 5 mps 737 mmHg 61%
    16:00 +27°C° 0 mm 5 mps 737 mmHg 64%
    17:00 +26°C° 0 mm 4 mps 737 mmHg 68%
    18:00 +25°C° 0 mm 4 mps 737 mmHg 72%
    19:00 +22°C° 0 mm 4 mps 737 mmHg 77%
    20:00 +20°C° 0 mm 3 mps 736 mmHg 82%
    21:00 +19°C° 0 mm 3 mps 737 mmHg 84%
    22:00 +19°C° 0 mm 3 mps 737 mmHg 87%
    23:00 +18°C° 0 mm 3 mps 737 mmHg 89%

    8 June, Monday

    Time Temperature Precipitation Wind Pressure Humidity
    00:00 +18°C° 0 mm 3 mps 737 mmHg 89%
    01:00 +17°C° 0 mm 3 mps 737 mmHg 88%
    02:00 +17°C° 0 mm 3 mps 737 mmHg 88%
    03:00 +17°C° 0 mm 3 mps 736 mmHg 88%
    04:00 +15°C° 0 mm 4 mps 736 mmHg 89%
    05:00 +15°C° 0 mm 4 mps 736 mmHg 89%
    06:00 +18°C° 0 mm 4 mps 736 mmHg 86%
    07:00 +19°C° 0 mm 4 mps 736 mmHg 83%
    08:00 +20°C° 0 mm 5 mps 736 mmHg 80%
    09:00 +22°C° 0 mm 5 mps 736 mmHg 76%
    10:00 +23°C° 0 mm 5 mps 736 mmHg 72%
    11:00 +26°C° 0 mm 6 mps 736 mmHg 68%
    12:00 +26°C° 0 mm 6 mps 736 mmHg 67%
    13:00 +27°C° 0 mm 6 mps 736 mmHg 65%
    14:00 +27°C° 0 mm 5 mps 736 mmHg 64%
    15:00 +27°C° 0 mm 5 mps 736 mmHg 66%
    16:00 +27°C° 0 mm 5 mps 735 mmHg 67%
    17:00 +27°C° 0 mm 4 mps 735 mmHg 69%
    18:00 +25°C° 0.1 mm 4 mps 735 mmHg 74%
    19:00 +23°C° 0.1 mm 4 mps 735 mmHg 78%
    20:00 +22°C° 0.1 mm 3 mps 735 mmHg 83%
    21:00 +21°C° 0 mm 3 mps 735 mmHg 84%
    22:00 +20°C° 0 mm 3 mps 735 mmHg 85%
    23:00 +19°C° 0 mm 3 mps 735 mmHg 87%

    9 June, Tuesday

    Time Temperature Precipitation Wind Pressure Humidity
    00:00 +19°C° 0 mm 3 mps 735 mmHg 86%
    01:00 +18°C° 0 mm 3 mps 735 mmHg 86%
    02:00 +18°C° 0 mm 3 mps 735 mmHg 85%
    03:00 +17°C° 0 mm 3 mps 735 mmHg 86%
    04:00 +17°C° 0 mm 3 mps 735 mmHg 87%
    05:00 +16°C° 0 mm 3 mps 735 mmHg 89%
    06:00 +18°C° 0 mm 3 mps 735 mmHg 85%
    07:00 +20°C° 0 mm 3 mps 736 mmHg 82%
    08:00 +21°C° 0 mm 3 mps 736 mmHg 79%
    09:00 +23°C° 0 mm 4 mps 736 mmHg 74%
    10:00 +25°C° 0 mm 4 mps 736 mmHg 70%
    11:00 +27°C° 0 mm 4 mps 736 mmHg 66%
    12:00 +27°C° 0 mm 4 mps 736 mmHg 65%
    13:00 +28°C° 0 mm 4 mps 736 mmHg 63%
    14:00 +28°C° 0 mm 4 mps 736 mmHg 62%
    15:00 +28°C° 0 mm 4 mps 736 mmHg 63%
    16:00 +28°C° 0 mm 4 mps 736 mmHg 64%
    17:00 +28°C° 0 mm 3 mps 735 mmHg 65%
    18:00 +26°C° 0.1 mm 3 mps 735 mmHg 69%
    19:00 +25°C° 0.1 mm 2 mps 735 mmHg 73%
    20:00 +23°C° 0.1 mm 2 mps 735 mmHg 77%
    21:00 +23°C° 0 mm 2 mps 736 mmHg 79%
    22:00 +21°C° 0 mm 2 mps 736 mmHg 80%
    23:00 +20°C° 0 mm 3 mps 736 mmHg 82%

    10 June, Wednesday

    Time Temperature Precipitation Wind Pressure Humidity
    00:00 +20°C° 0 mm 3 mps 736 mmHg 84%
    01:00 +19°C° 0 mm 3 mps 736 mmHg 86%
    02:00 +19°C° 0 mm 3 mps 736 mmHg 88%
    03:00 +19°C° 0 mm 2 mps 736 mmHg 87%
    04:00 +19°C° 0 mm 2 mps 736 mmHg 87%
    05:00 +18°C° 0 mm 2 mps 736 mmHg 86%
    06:00 +20°C° 0 mm 3 mps 737 mmHg 82%
    07:00 +21°C° 0 mm 3 mps 737 mmHg 78%
    08:00 +24°C° 0 mm 3 mps 737 mmHg 75%
    09:00 +25°C° 0 mm 4 mps 737 mmHg 69%
    10:00 +27°C° 0 mm 4 mps 737 mmHg 64%
    11:00 +28°C° 0 mm 4 mps 738 mmHg 58%
    12:00 +29°C° 0 mm 4 mps 737 mmHg 58%
    13:00 +29°C° 0 mm 5 mps 737 mmHg 57%
    14:00 +29°C° 0 mm 5 mps 737 mmHg 57%
    15:00 +29°C° 0 mm 4 mps 737 mmHg 59%
    16:00 +29°C° 0 mm 4 mps 737 mmHg 62%
    17:00 +29°C° 0 mm 3 mps 737 mmHg 65%
    18:00 +27°C° 0.1 mm 3 mps 737 mmHg 70%
    19:00 +26°C° 0.1 mm 3 mps 737 mmHg 74%
    20:00 +24°C° 0.1 mm 3 mps 737 mmHg 79%
    21:00 +22°C° 0 mm 3 mps 737 mmHg 81%
    22:00 +21°C° 0 mm 3 mps 737 mmHg 83%
    23:00 +21°C° 0 mm 3 mps 737 mmHg 85%
    Show more